Location: Unspecified
(0.0000°N, 0.0000°E)
Time: 16:44:57
(UTC+01:00)

Delta 168 - Visible Passes

Search period start: 31 October 2014 00:00
Search period end: 10 November 2014 00:00
Orbit: 395 x 2110 km, 25.3° (Epoch: 29 October)

Date Brightness Start Highest point End Pass type
(mag) Time Alt. Az. Time Alt. Az. Time Alt. Az.
31 Oct 6.6 02:48:32 31° E 02:48:32 31° E 02:54:27 10° ENE visible
31 Oct 5.4 04:39:05 52° W 04:42:20 67° NNW 04:55:26 10° NE visible
01 Nov 6.7 02:45:30 26° ENE 02:45:30 26° ENE 02:50:15 10° ENE visible
01 Nov 5.4 04:36:02 54° WNW 04:38:08 60° NNW 04:51:02 10° NE visible
02 Nov 6.9 02:42:23 22° ENE 02:42:23 22° ENE 02:45:58 10° ENE visible
02 Nov 5.4 04:32:54 51° NW 04:33:59 52° NNW 04:46:34 10° NE visible
03 Nov 7.0 02:39:09 18° ENE 02:39:09 18° ENE 02:41:36 10° ENE visible
03 Nov 5.6 04:29:40 46° NNW 04:29:51 46° NNW 04:42:01 10° NE visible
04 Nov 7.2 02:35:49 14° ENE 02:35:49 14° ENE 02:37:08 10° ENE visible
04 Nov 5.8 04:26:20 40° NNW 04:26:20 40° NNW 04:37:25 10° NE visible
04 Nov 6.7 06:18:25 10° WNW 06:27:31 24° NNW 06:37:08 10° NE visible
05 Nov 7.3 02:32:24 11° ENE 02:32:24 11° ENE 02:32:36 10° ENE visible
05 Nov 6.0 04:22:54 35° N 04:22:54 35° N 04:32:46 10° NE visible
05 Nov 6.7 06:14:57 10° NW 06:23:36 22° N 06:32:49 10° NE visible
06 Nov 6.2 04:19:23 30° N 04:19:23 30° N 04:28:03 10° NE visible
06 Nov 6.7 06:11:28 10° NW 06:19:42 21° N 06:28:31 10° NE visible
07 Nov 6.3 04:15:46 26° N 04:15:46 26° N 04:23:19 10° NE visible
07 Nov 6.8 06:07:57 10° NW 06:15:47 20° N 06:24:16 10° NE visible
08 Nov 6.5 04:12:06 22° N 04:12:06 22° N 04:18:32 10° NE visible
08 Nov 6.8 06:04:21 10° NW 06:11:53 19° N 06:20:05 10° NE visible
09 Nov 6.6 04:08:22 19° N 04:08:22 19° N 04:13:43 10° NE visible
09 Nov 6.8 06:00:40 10° NW 06:07:58 18° N 06:15:57 10° NE visible
